Weather History for Henderson, TX

Change the Weather History Date:

Friday, September 14, 2012

  Actual Average (KGGG) Record (KGGG)
Temperature  
Mean Temperature 74 °F 77 °F  
Max Temperature 80 °F 88 °F 104 °F (1939)
Min Temperature 68 °F 65 °F 47 °F (1902)
Degree Days  
Heating Degree Days 0 0  
Month to date heating degree days 0  
Since 1 July heating degree days 0  
Cooling Degree Days 9 12  
Month to date cooling degree days 193  
Year to date cooling degree days 2133  
Growing Degree Days 24 (Base 50)    
Moisture  
Dew Point 67 °F    
Average Humidity 86    
Maximum Humidity 100    
Minimum Humidity 61    
Precipitation  
Precipitation 0.47 in 0.11 in 4.14 in (2009)
Month to date precipitation 1.51  
Year to date precipitation 32.16  
Snow  
Snow 0.00 in - - ()
Month to date snowfall  
Since 1 July snowfall  
Since 1 September snowfall  
Snow Depth -    
Sea Level Pressure  
Sea Level Pressure 30.15 in    
Wind  
Wind Speed 1 mph (NW)    
Max Wind Speed 8 mph    
Max Gust Speed 17 mph    
Visibility 7 miles    
Events Fog , Rain , Thunderstorm    
T = Trace of Precipitation, MM = Missing Value Source: NWS Daily Summary

Daily Weather History Graph

Daily Weather History Graph

Search for Another Location

Airport:

Trip Planner

Search our weather history database for the weather conditions in past years. The results will help you decide how hot, cold, wet, or windy it might be!

Date:

Astronomy

Sep. 14, 2012 Rise Set
Actual Time 7:02 AM CDT 7:26 PM CDT
Civil Twilight 6:38 AM CDT 7:50 PM CDT
Nautical Twilight 6:09 AM CDT 8:19 PM CDT
Astronomical Twilight 5:40 AM CDT 8:48 PM CDT
Moon 5:31 AM CDT (9/14) 6:22 PM CDT (9/14)
Length of Visible Light 13h 12m
Length of Day
12h 23m
Waning Crescent, 2% of the Moon is Illuminated
Sep 14
Waning Crescent
Sep 15
New
Sep 22
First Quarter
Sep 29
Full
Oct 8
Last Quarter

Hourly Weather History & Observations

Time (CDT) Temp. Heat Index Dew Point Humidity Pressure Visibility Wind Dir Wind Speed Gust Speed Precip Events Conditions
12:15 AM 68.0 °F - 66.2 °F 94% 30.14 in 10.0 mi Calm Calm - N/A   Clear
12:35 AM 68.0 °F - 66.2 °F 94% 30.14 in 5.0 mi Calm Calm - N/A   Scattered Clouds
12:55 AM 68.0 °F - 66.2 °F 94% 30.14 in 7.0 mi Calm Calm - N/A   Overcast
1:15 AM 68.0 °F - 66.2 °F 94% 30.14 in 7.0 mi Calm Calm - N/A   Mostly Cloudy
1:35 AM 68.0 °F - 66.2 °F 94% 30.14 in 7.0 mi Calm Calm - N/A   Mostly Cloudy
1:55 AM 68.0 °F - 68.0 °F 100% 30.15 in 0.5 mi SE 3.5 mph - N/A Fog Fog
2:15 AM 68.0 °F - 66.2 °F 94% 30.15 in 0.5 mi SE 3.5 mph - N/A Fog Fog
2:35 AM 68.0 °F - 66.2 °F 94% 30.15 in 0.5 mi SE 3.5 mph - N/A Fog Fog
2:55 AM 68.0 °F - 68.0 °F 100% 30.15 in 1.0 mi SSE 3.5 mph - N/A   Overcast
3:15 AM 68.0 °F - 66.2 °F 94% 30.14 in 1.2 mi SSE 3.5 mph - N/A   Overcast
3:35 AM 68.0 °F - 66.2 °F 94% 30.14 in 2.0 mi Calm Calm - N/A   Overcast
3:55 AM 68.0 °F - 66.2 °F 94% 30.14 in 3.0 mi Calm Calm - N/A   Overcast
4:15 AM 68.0 °F - 66.2 °F 94% 30.13 in 4.0 mi Calm Calm - N/A   Overcast
4:35 AM 68.0 °F - 66.2 °F 94% 30.13 in 5.0 mi Calm Calm - N/A   Overcast
4:55 AM 68.0 °F - 68.0 °F 100% 30.13 in 5.0 mi Calm Calm - N/A   Overcast
5:15 AM 68.0 °F - 66.2 °F 94% 30.13 in 5.0 mi Calm Calm - N/A   Overcast
5:35 AM 68.0 °F - 66.2 °F 94% 30.14 in 7.0 mi Calm Calm - N/A   Overcast
5:55 AM 68.0 °F - 68.0 °F 100% 30.14 in 5.0 mi Calm Calm - N/A   Overcast
6:15 AM 68.0 °F - 68.0 °F 100% 30.14 in 5.0 mi Calm Calm - N/A   Overcast
6:35 AM 68.0 °F - 68.0 °F 100% 30.14 in 5.0 mi Calm Calm - N/A   Overcast
6:55 AM 68.0 °F - 66.2 °F 94% 30.15 in 5.0 mi Calm Calm - N/A   Overcast
7:15 AM 68.0 °F - 66.2 °F 94% 30.15 in 4.0 mi Calm Calm - N/A   Overcast
7:35 AM 68.0 °F - 66.2 °F 94% 30.16 in 4.0 mi Calm Calm - N/A   Overcast
7:55 AM 68.0 °F - 68.0 °F 100% 30.16 in 5.0 mi North - - N/A   Overcast
8:15 AM 69.8 °F - 68.0 °F 94% 30.16 in 5.0 mi Calm Calm - N/A   Overcast
8:35 AM 69.8 °F - 68.0 °F 94% 30.16 in 7.0 mi Calm Calm - N/A   Overcast
8:55 AM 69.8 °F - 68.0 °F 94% 30.17 in 7.0 mi Calm Calm - N/A   Mostly Cloudy
9:15 AM 69.8 °F - 68.0 °F 94% 30.18 in 7.0 mi Calm Calm - N/A   Overcast
9:35 AM 69.8 °F - 68.0 °F 94% 30.18 in 7.0 mi Calm Calm - N/A   Overcast
9:55 AM 71.6 °F - 68.0 °F 88% 30.18 in 10.0 mi Calm Calm - N/A   Overcast
10:15 AM 71.6 °F - 68.0 °F 88% 30.18 in 10.0 mi Calm Calm - N/A   Overcast
10:35 AM 71.6 °F - 68.0 °F 88% 30.18 in 10.0 mi Calm Calm - N/A   Overcast
10:55 AM 71.6 °F - 68.0 °F 88% 30.19 in 10.0 mi Calm Calm - N/A   Overcast
11:15 AM 73.4 °F - 68.0 °F 83% 30.19 in 10.0 mi Calm Calm - N/A   Overcast
11:35 AM 73.4 °F - 68.0 °F 83% 30.19 in 10.0 mi Calm Calm - N/A   Overcast
11:55 AM 73.4 °F - 68.0 °F 83% 30.19 in 10.0 mi Calm Calm - N/A   Mostly Cloudy
12:35 PM 77.0 °F - 68.0 °F 74% 30.18 in 10.0 mi Calm Calm - N/A   Mostly Cloudy
12:55 PM 78.8 °F - 66.2 °F 65% 30.18 in 10.0 mi Calm Calm - N/A   Mostly Cloudy
1:15 PM 80.6 °F 82.7 °F 66.2 °F 61% 30.16 in 10.0 mi Calm Calm - N/A   Scattered Clouds
1:35 PM 80.6 °F 82.7 °F 66.2 °F 61% 30.16 in 10.0 mi Calm Calm - N/A   Scattered Clouds
1:55 PM 80.6 °F 82.7 °F 66.2 °F 61% 30.15 in 10.0 mi Calm Calm - N/A   Scattered Clouds
2:15 PM 80.6 °F 82.7 °F 66.2 °F 61% 30.14 in 10.0 mi Calm Calm - N/A   Scattered Clouds
2:35 PM 78.8 °F - 66.2 °F 65% 30.14 in 10.0 mi NW 5.8 mph - N/A   Mostly Cloudy
2:55 PM 77.0 °F - 66.2 °F 69% 30.13 in 10.0 mi NNW 4.6 mph - N/A   Overcast
3:15 PM 77.0 °F - 68.0 °F 74% 30.13 in 10.0 mi North 6.9 mph - N/A   Scattered Clouds
3:35 PM 77.0 °F - 66.2 °F 69% 30.12 in 10.0 mi North 4.6 mph - N/A   Scattered Clouds
3:55 PM 77.0 °F - 68.0 °F 74% 30.11 in 10.0 mi North 3.5 mph - N/A Rain Light Rain
4:15 PM 78.8 °F - 68.0 °F 69% 30.11 in 10.0 mi NNW 5.8 mph - N/A   Scattered Clouds
4:35 PM 78.8 °F - 68.0 °F 69% 30.11 in 10.0 mi North - - N/A   Clear
4:55 PM 80.6 °F 83.2 °F 68.0 °F 65% 30.10 in 10.0 mi NW 4.6 mph - N/A   Scattered Clouds
5:15 PM 78.8 °F - 66.2 °F 65% 30.10 in 10.0 mi North 3.5 mph - N/A   Scattered Clouds
5:35 PM 78.8 °F - 66.2 °F 65% 30.11 in 7.0 mi North - - N/A Thunderstorm Scattered Clouds
5:55 PM 78.8 °F - 66.2 °F 65% 30.11 in 10.0 mi North - - N/A   Scattered Clouds
6:15 PM 78.8 °F - 66.2 °F 65% 30.12 in 10.0 mi Calm Calm - N/A   Mostly Cloudy
6:35 PM 75.2 °F - 69.8 °F 83% 30.13 in 10.0 mi Calm Calm - N/A Rain Light Rain
6:55 PM 73.4 °F - 71.6 °F 94% 30.13 in 5.0 mi SSW 3.5 mph - 0.03 in Rain , Thunderstorm Thunderstorms and Rain
7:15 PM 73.4 °F - 71.6 °F 94% 30.14 in 2.5 mi Calm Calm - 0.07 in Rain , Thunderstorm Heavy Thunderstorms and Rain
7:35 PM 71.6 °F - 69.8 °F 94% 30.15 in 7.0 mi Calm Calm - 0.10 in Rain Rain
7:55 PM 69.8 °F - 64.4 °F 83% 30.15 in 5.0 mi SW 8.1 mph 17.3 mph 0.14 in Rain , Thunderstorm Heavy Thunderstorms and Rain
8:15 PM 68.0 °F - 64.4 °F 88% 30.16 in 4.0 mi WSW 5.8 mph - 0.11 in Rain Heavy Rain
8:35 PM 68.0 °F - 64.4 °F 88% 30.18 in 5.0 mi Calm Calm - 0.17 in Rain , Thunderstorm Rain
8:55 PM 68.0 °F - 64.4 °F 88% 30.18 in 5.0 mi Calm Calm - 0.22 in Rain Rain
9:15 PM 68.0 °F - 64.4 °F 88% 30.18 in 7.0 mi North 4.6 mph - 0.04 in Rain Rain
9:35 PM 68.0 °F - 64.4 °F 88% 30.16 in 7.0 mi Calm Calm - 0.07 in Rain Light Rain
9:55 PM 68.0 °F - 64.4 °F 88% 30.16 in 10.0 mi NW 3.5 mph - 0.08 in Rain Light Rain
10:15 PM 68.0 °F - 64.4 °F 88% 30.16 in 10.0 mi Calm Calm - N/A Rain Light Rain
10:35 PM 68.0 °F - 66.2 °F 94% 30.17 in 10.0 mi Calm Calm - N/A Rain Light Rain
10:55 PM 68.0 °F - 66.2 °F 94% 30.18 in 10.0 mi Calm Calm - N/A   Scattered Clouds
11:15 PM 68.0 °F - 66.2 °F 94% 30.18 in 10.0 mi South 3.5 mph - N/A   Scattered Clouds
11:35 PM 68.0 °F - 66.2 °F 94% 30.19 in 10.0 mi Calm Calm - N/A   Mostly Cloudy
11:55 PM 68.0 °F - 66.2 °F 94% 30.18 in 10.0 mi Calm Calm - N/A   Mostly Cloudy